#datetime,building,power
2022-05-25T00:00:00,mcc,59.07
2022-05-25T00:01:00,mcc,57.49
2022-05-25T00:02:00,mcc,59.61
2022-05-25T00:03:00,mcc,58.33
2022-05-25T00:04:00,mcc,48.04
2022-05-25T00:05:00,mcc,46.27
2022-05-25T00:06:00,mcc,47.75
2022-05-25T00:07:00,mcc,47.29
2022-05-25T00:08:00,mcc,47.96
2022-05-25T00:09:00,mcc,44.47
2022-05-25T00:10:00,mcc,59.80
2022-05-25T00:11:00,mcc,43.49
2022-05-25T00:12:00,mcc,42.05
2022-05-25T00:13:00,mcc,40.46
2022-05-25T00:14:00,mcc,43.29
2022-05-25T00:15:00,mcc,53.95
2022-05-25T00:16:00,mcc,69.52
2022-05-25T00:17:00,mcc,62.33
2022-05-25T00:18:00,mcc,62.79
2022-05-25T00:19:00,mcc,52.28
2022-05-25T00:20:00,mcc,51.94
2022-05-25T00:21:00,mcc,43.97
2022-05-25T00:22:00,mcc,43.07
2022-05-25T00:23:00,mcc,44.70
2022-05-25T00:24:00,mcc,43.97
2022-05-25T00:25:00,mcc,44.73
2022-05-25T00:26:00,mcc,42.72
2022-05-25T00:27:00,mcc,40.24
2022-05-25T00:28:00,mcc,41.50
2022-05-25T00:29:00,mcc,42.83
2022-05-25T00:30:00,mcc,45.12
2022-05-25T00:31:00,mcc,43.63
2022-05-25T00:32:00,mcc,43.56
2022-05-25T00:33:00,mcc,43.52
2022-05-25T00:34:00,mcc,40.89
2022-05-25T00:35:00,mcc,40.39
2022-05-25T00:36:00,mcc,50.84
2022-05-25T00:37:00,mcc,41.79
2022-05-25T00:38:00,mcc,41.04
2022-05-25T00:39:00,mcc,40.64
2022-05-25T00:40:00,mcc,38.88
2022-05-25T00:41:00,mcc,38.25
2022-05-25T00:42:00,mcc,39.22
2022-05-25T00:43:00,mcc,39.34
2022-05-25T00:44:00,mcc,40.37
2022-05-25T00:45:00,mcc,40.58
2022-05-25T00:46:00,mcc,40.77
2022-05-25T00:47:00,mcc,38.67
2022-05-25T00:48:00,mcc,38.26
2022-05-25T00:49:00,mcc,37.98
2022-05-25T00:50:00,mcc,38.18
2022-05-25T00:51:00,mcc,40.62
2022-05-25T00:52:00,mcc,42.63
2022-05-25T00:53:00,mcc,42.56
2022-05-25T00:54:00,mcc,42.21
2022-05-25T00:55:00,mcc,50.43
2022-05-25T00:56:00,mcc,40.28
2022-05-25T00:57:00,mcc,41.41
2022-05-25T00:58:00,mcc,41.94
2022-05-25T00:59:00,mcc,40.55
2022-05-25T01:00:00,mcc,38.23
2022-05-25T01:01:00,mcc,37.48
2022-05-25T01:02:00,mcc,35.75
2022-05-25T01:03:00,mcc,36.37
2022-05-25T01:04:00,mcc,36.86
2022-05-25T01:05:00,mcc,36.73
2022-05-25T01:06:00,mcc,37.38
2022-05-25T01:07:00,mcc,36.25
2022-05-25T01:08:00,mcc,38.27
2022-05-25T01:09:00,mcc,39.07
2022-05-25T01:10:00,mcc,39.05
2022-05-25T01:11:00,mcc,42.10
2022-05-25T01:12:00,mcc,55.92
2022-05-25T01:13:00,mcc,40.60
2022-05-25T01:14:00,mcc,40.72
2022-05-25T01:15:00,mcc,48.04
2022-05-25T01:16:00,mcc,38.33
2022-05-25T01:17:00,mcc,38.01
2022-05-25T01:18:00,mcc,37.90
2022-05-25T01:19:00,mcc,38.34
2022-05-25T01:20:00,mcc,39.07
2022-05-25T01:21:00,mcc,41.33
2022-05-25T01:22:00,mcc,42.36
2022-05-25T01:23:00,mcc,42.35
2022-05-25T01:24:00,mcc,39.66
2022-05-25T01:25:00,mcc,40.00
2022-05-25T01:26:00,mcc,40.91
2022-05-25T01:27:00,mcc,41.31
2022-05-25T01:28:00,mcc,39.97
2022-05-25T01:29:00,mcc,39.42
2022-05-25T01:30:00,mcc,38.93
2022-05-25T01:31:00,mcc,37.91
2022-05-25T01:32:00,mcc,37.69
2022-05-25T01:33:00,mcc,38.98
2022-05-25T01:34:00,mcc,39.29
2022-05-25T01:35:00,mcc,39.07
2022-05-25T01:36:00,mcc,36.36
2022-05-25T01:37:00,mcc,48.73
2022-05-25T01:38:00,mcc,37.64
2022-05-25T01:39:00,mcc,38.35
2022-05-25T01:40:00,mcc,37.89
2022-05-25T01:41:00,mcc,38.74
2022-05-25T01:42:00,mcc,40.17
2022-05-25T01:43:00,mcc,39.79
2022-05-25T01:44:00,mcc,40.08
2022-05-25T01:45:00,mcc,37.99
2022-05-25T01:46:00,mcc,37.47
2022-05-25T01:47:00,mcc,37.63
2022-05-25T01:48:00,mcc,38.68
2022-05-25T01:49:00,mcc,37.41
2022-05-25T01:50:00,mcc,37.41
2022-05-25T01:51:00,mcc,36.27
2022-05-25T01:52:00,mcc,37.18
2022-05-25T01:53:00,mcc,44.03
2022-05-25T01:54:00,mcc,37.13
2022-05-25T01:55:00,mcc,37.02
2022-05-25T01:56:00,mcc,37.15
2022-05-25T01:57:00,mcc,36.05
2022-05-25T01:58:00,mcc,36.38
2022-05-25T01:59:00,mcc,36.56
2022-05-25T02:00:00,mcc,36.16
2022-05-25T02:01:00,mcc,38.78
2022-05-25T02:02:00,mcc,40.22
2022-05-25T02:03:00,mcc,40.08
2022-05-25T02:04:00,mcc,42.45
2022-05-25T02:05:00,mcc,41.48
2022-05-25T02:06:00,mcc,40.50
2022-05-25T02:07:00,mcc,38.54
2022-05-25T02:08:00,mcc,37.55
2022-05-25T02:09:00,mcc,51.25
2022-05-25T02:10:00,mcc,38.09
2022-05-25T02:11:00,mcc,39.34
2022-05-25T02:12:00,mcc,40.66
2022-05-25T02:13:00,mcc,46.77
2022-05-25T02:14:00,mcc,43.45
2022-05-25T02:15:00,mcc,43.92
2022-05-25T02:16:00,mcc,43.04
2022-05-25T02:17:00,mcc,41.48
2022-05-25T02:18:00,mcc,41.12
2022-05-25T02:19:00,mcc,38.20
2022-05-25T02:20:00,mcc,36.43
2022-05-25T02:21:00,mcc,38.27
2022-05-25T02:22:00,mcc,39.23
2022-05-25T02:23:00,mcc,39.86
2022-05-25T02:24:00,mcc,37.66
2022-05-25T02:25:00,mcc,38.61
2022-05-25T02:26:00,mcc,38.14
2022-05-25T02:27:00,mcc,37.97
2022-05-25T02:28:00,mcc,40.84
2022-05-25T02:29:00,mcc,42.42
2022-05-25T02:30:00,mcc,41.73
2022-05-25T02:31:00,mcc,40.46
2022-05-25T02:32:00,mcc,48.55
2022-05-25T02:33:00,mcc,39.25
2022-05-25T02:34:00,mcc,39.53
2022-05-25T02:35:00,mcc,38.76
2022-05-25T02:36:00,mcc,39.16
2022-05-25T02:37:00,mcc,37.95
2022-05-25T02:38:00,mcc,39.45
2022-05-25T02:39:00,mcc,39.06
2022-05-25T02:40:00,mcc,39.55
2022-05-25T02:41:00,mcc,39.70
2022-05-25T02:42:00,mcc,53.45
2022-05-25T02:43:00,mcc,56.87
2022-05-25T02:44:00,mcc,44.81
2022-05-25T02:45:00,mcc,44.58
2022-05-25T02:46:00,mcc,43.61
2022-05-25T02:47:00,mcc,40.80
2022-05-25T02:48:00,mcc,41.53
2022-05-25T02:49:00,mcc,39.68
2022-05-25T02:50:00,mcc,38.04
2022-05-25T02:51:00,mcc,45.97
2022-05-25T02:52:00,mcc,38.38
2022-05-25T02:53:00,mcc,37.94
2022-05-25T02:54:00,mcc,38.78
2022-05-25T02:55:00,mcc,39.98
2022-05-25T02:56:00,mcc,40.63
2022-05-25T02:57:00,mcc,41.15
2022-05-25T02:58:00,mcc,39.95
2022-05-25T02:59:00,mcc,39.69
2022-05-25T03:00:00,mcc,38.50
2022-05-25T03:01:00,mcc,38.98
2022-05-25T03:02:00,mcc,39.06
2022-05-25T03:03:00,mcc,36.71
2022-05-25T03:04:00,mcc,36.92
2022-05-25T03:05:00,mcc,35.90
2022-05-25T03:06:00,mcc,36.05
2022-05-25T03:07:00,mcc,37.53
2022-05-25T03:08:00,mcc,38.71
2022-05-25T03:09:00,mcc,39.02
2022-05-25T03:10:00,mcc,39.67
2022-05-25T03:11:00,mcc,47.67
2022-05-25T03:12:00,mcc,37.83
2022-05-25T03:13:00,mcc,40.10
2022-05-25T03:14:00,mcc,40.27
2022-05-25T03:15:00,mcc,41.13
2022-05-25T03:16:00,mcc,40.61
2022-05-25T03:17:00,mcc,40.99
2022-05-25T03:18:00,mcc,39.44
2022-05-25T03:19:00,mcc,38.23
2022-05-25T03:20:00,mcc,37.70
2022-05-25T03:21:00,mcc,38.84
2022-05-25T03:22:00,mcc,39.86
2022-05-25T03:23:00,mcc,40.26
2022-05-25T03:24:00,mcc,39.04
2022-05-25T03:25:00,mcc,36.56
2022-05-25T03:26:00,mcc,36.45
2022-05-25T03:27:00,mcc,38.82
2022-05-25T03:28:00,mcc,39.53
2022-05-25T03:29:00,mcc,38.44
2022-05-25T03:30:00,mcc,46.70
2022-05-25T03:31:00,mcc,37.87
2022-05-25T03:32:00,mcc,38.94
2022-05-25T03:33:00,mcc,39.65
2022-05-25T03:34:00,mcc,39.43
2022-05-25T03:35:00,mcc,39.94
2022-05-25T03:36:00,mcc,39.94
2022-05-25T03:37:00,mcc,41.87
2022-05-25T03:38:00,mcc,40.10
2022-05-25T03:39:00,mcc,39.44
2022-05-25T03:40:00,mcc,37.09
2022-05-25T03:41:00,mcc,37.20
2022-05-25T03:42:00,mcc,37.57
2022-05-25T03:43:00,mcc,37.65
2022-05-25T03:44:00,mcc,38.14
2022-05-25T03:45:00,mcc,38.32
2022-05-25T03:46:00,mcc,37.45
2022-05-25T03:47:00,mcc,41.04
2022-05-25T03:48:00,mcc,41.70
2022-05-25T03:49:00,mcc,41.09
2022-05-25T03:50:00,mcc,40.64
2022-05-25T03:51:00,mcc,38.92
2022-05-25T03:52:00,mcc,36.11
2022-05-25T03:53:00,mcc,36.64
2022-05-25T03:54:00,mcc,37.09
2022-05-25T03:55:00,mcc,34.33
2022-05-25T03:56:00,mcc,34.35
2022-05-25T03:57:00,mcc,33.11
2022-05-25T03:58:00,mcc,33.77
2022-05-25T03:59:00,mcc,33.62
2022-05-25T04:00:00,mcc,34.77
2022-05-25T04:01:00,mcc,36.30
2022-05-25T04:02:00,mcc,37.36
2022-05-25T04:03:00,mcc,48.96
2022-05-25T04:04:00,mcc,49.08
2022-05-25T04:05:00,mcc,37.27
2022-05-25T04:06:00,mcc,37.41
2022-05-25T04:07:00,mcc,36.80
2022-05-25T04:08:00,mcc,37.20
2022-05-25T04:09:00,mcc,45.83
2022-05-25T04:10:00,mcc,36.46
2022-05-25T04:11:00,mcc,35.44
2022-05-25T04:12:00,mcc,36.84
2022-05-25T04:13:00,mcc,38.86
2022-05-25T04:14:00,mcc,40.24
2022-05-25T04:15:00,mcc,41.75
2022-05-25T04:16:00,mcc,41.44
2022-05-25T04:17:00,mcc,43.36
2022-05-25T04:18:00,mcc,44.70
2022-05-25T04:19:00,mcc,41.89
2022-05-25T04:20:00,mcc,42.21
2022-05-25T04:21:00,mcc,42.43
2022-05-25T04:22:00,mcc,39.44
2022-05-25T04:23:00,mcc,37.38
2022-05-25T04:24:00,mcc,37.05
2022-05-25T04:25:00,mcc,35.86
2022-05-25T04:26:00,mcc,35.84
2022-05-25T04:27:00,mcc,41.78
2022-05-25T04:28:00,mcc,42.40
2022-05-25T04:29:00,mcc,46.89
2022-05-25T04:30:00,mcc,48.25
2022-05-25T04:31:00,mcc,47.17
2022-05-25T04:32:00,mcc,55.30
2022-05-25T04:33:00,mcc,54.08
2022-05-25T04:34:00,mcc,46.54
2022-05-25T04:35:00,mcc,48.91
2022-05-25T04:36:00,mcc,39.07
2022-05-25T04:37:00,mcc,38.18
2022-05-25T04:38:00,mcc,39.66
2022-05-25T04:39:00,mcc,38.43
2022-05-25T04:40:00,mcc,42.37
2022-05-25T04:41:00,mcc,41.69
2022-05-25T04:42:00,mcc,40.96
2022-05-25T04:43:00,mcc,40.89
2022-05-25T04:44:00,mcc,41.08
2022-05-25T04:45:00,mcc,40.50
2022-05-25T04:46:00,mcc,41.03
2022-05-25T04:47:00,mcc,51.02
2022-05-25T04:48:00,mcc,40.65
2022-05-25T04:49:00,mcc,40.56
2022-05-25T04:50:00,mcc,40.90
2022-05-25T04:51:00,mcc,41.07
2022-05-25T04:52:00,mcc,44.06
2022-05-25T04:53:00,mcc,42.39
2022-05-25T04:54:00,mcc,41.15
2022-05-25T04:55:00,mcc,40.99
2022-05-25T04:56:00,mcc,38.76
2022-05-25T04:57:00,mcc,38.22
2022-05-25T04:58:00,mcc,36.39
2022-05-25T04:59:00,mcc,37.04
2022-05-25T05:00:00,mcc,38.48
2022-05-25T05:01:00,mcc,39.47
2022-05-25T05:02:00,mcc,40.60
2022-05-25T05:03:00,mcc,38.71
2022-05-25T05:04:00,mcc,38.89
2022-05-25T05:05:00,mcc,40.57
2022-05-25T05:06:00,mcc,41.83
2022-05-25T05:07:00,mcc,42.98
2022-05-25T05:08:00,mcc,44.77
2022-05-25T05:09:00,mcc,44.57
2022-05-25T05:10:00,mcc,43.01
2022-05-25T05:11:00,mcc,40.72
2022-05-25T05:12:00,mcc,40.26
2022-05-25T05:13:00,mcc,53.16
2022-05-25T05:14:00,mcc,38.94
2022-05-25T05:15:00,mcc,37.48
2022-05-25T05:16:00,mcc,36.34
2022-05-25T05:17:00,mcc,38.28
2022-05-25T05:18:00,mcc,40.06
2022-05-25T05:19:00,mcc,40.55
2022-05-25T05:20:00,mcc,41.29
2022-05-25T05:21:00,mcc,43.53
2022-05-25T05:22:00,mcc,42.53
2022-05-25T05:23:00,mcc,40.82
2022-05-25T05:24:00,mcc,36.82
2022-05-25T05:25:00,mcc,43.90
2022-05-25T05:26:00,mcc,34.14
2022-05-25T05:27:00,mcc,33.47
2022-05-25T05:28:00,mcc,34.89
2022-05-25T05:29:00,mcc,35.22
2022-05-25T05:30:00,mcc,35.85
2022-05-25T05:31:00,mcc,37.24
2022-05-25T05:32:00,mcc,42.60
2022-05-25T05:33:00,mcc,42.30
2022-05-25T05:34:00,mcc,41.50
2022-05-25T05:35:00,mcc,43.12
2022-05-25T05:36:00,mcc,52.41
2022-05-25T05:37:00,mcc,41.01
2022-05-25T05:38:00,mcc,40.83
2022-05-25T05:39:00,mcc,39.48
2022-05-25T05:40:00,mcc,38.44
2022-05-25T05:41:00,mcc,39.64
2022-05-25T05:42:00,mcc,39.15
2022-05-25T05:43:00,mcc,39.54
2022-05-25T05:44:00,mcc,39.83
2022-05-25T05:45:00,mcc,40.34
2022-05-25T05:46:00,mcc,39.59
2022-05-25T05:47:00,mcc,41.22
2022-05-25T05:48:00,mcc,40.12
2022-05-25T05:49:00,mcc,40.42
2022-05-25T05:50:00,mcc,39.48
2022-05-25T05:51:00,mcc,40.13
2022-05-25T05:52:00,mcc,39.47
2022-05-25T05:53:00,mcc,39.92
2022-05-25T05:54:00,mcc,39.46
2022-05-25T05:55:00,mcc,37.19
2022-05-25T05:56:00,mcc,38.12
2022-05-25T05:57:00,mcc,39.98
2022-05-25T05:58:00,mcc,44.10
2022-05-25T05:59:00,mcc,43.73
2022-05-25T06:00:00,mcc,43.45
2022-05-25T06:01:00,mcc,44.36
2022-05-25T06:02:00,mcc,44.80
2022-05-25T06:03:00,mcc,44.84
2022-05-25T06:04:00,mcc,43.28
2022-05-25T06:05:00,mcc,42.99
2022-05-25T06:06:00,mcc,41.14
2022-05-25T06:07:00,mcc,40.68
2022-05-25T06:08:00,mcc,41.15
2022-05-25T06:09:00,mcc,41.16
2022-05-25T06:10:00,mcc,45.34
2022-05-25T06:11:00,mcc,46.43
2022-05-25T06:12:00,mcc,48.45
2022-05-25T06:13:00,mcc,47.20
2022-05-25T06:14:00,mcc,43.59
2022-05-25T06:15:00,mcc,56.66
2022-05-25T06:16:00,mcc,45.09
2022-05-25T06:17:00,mcc,45.02
2022-05-25T06:18:00,mcc,44.15
2022-05-25T06:19:00,mcc,44.21
2022-05-25T06:20:00,mcc,45.52
2022-05-25T06:21:00,mcc,44.79
2022-05-25T06:22:00,mcc,47.55
2022-05-25T06:23:00,mcc,47.85
2022-05-25T06:24:00,mcc,48.58
2022-05-25T06:25:00,mcc,46.59
2022-05-25T06:26:00,mcc,51.14
2022-05-25T06:27:00,mcc,47.30
2022-05-25T06:28:00,mcc,48.07
2022-05-25T06:29:00,mcc,49.39
2022-05-25T06:30:00,mcc,49.83
2022-05-25T06:31:00,mcc,50.02
2022-05-25T06:32:00,mcc,48.81
2022-05-25T06:33:00,mcc,46.57
2022-05-25T06:34:00,mcc,46.60
2022-05-25T06:35:00,mcc,46.14
2022-05-25T06:36:00,mcc,45.31
2022-05-25T06:37:00,mcc,48.43
2022-05-25T06:38:00,mcc,45.71
2022-05-25T06:39:00,mcc,46.02
2022-05-25T06:40:00,mcc,47.20
2022-05-25T06:41:00,mcc,57.21
2022-05-25T06:42:00,mcc,57.16
2022-05-25T06:43:00,mcc,56.55
2022-05-25T06:44:00,mcc,58.37
2022-05-25T06:45:00,mcc,56.88
2022-05-25T06:46:00,mcc,55.40
2022-05-25T06:47:00,mcc,55.20
2022-05-25T06:48:00,mcc,57.30
2022-05-25T06:49:00,mcc,57.52
2022-05-25T06:50:00,mcc,57.57
2022-05-25T06:51:00,mcc,57.18
2022-05-25T06:52:00,mcc,55.50
2022-05-25T06:53:00,mcc,56.16
2022-05-25T06:54:00,mcc,57.21
2022-05-25T06:55:00,mcc,55.73
2022-05-25T06:56:00,mcc,53.57
2022-05-25T06:57:00,mcc,54.66
2022-05-25T06:58:00,mcc,46.08
2022-05-25T06:59:00,mcc,51.93
2022-05-25T07:00:00,mcc,51.06
2022-05-25T07:01:00,mcc,59.64
2022-05-25T07:02:00,mcc,50.08
2022-05-25T07:03:00,mcc,53.52
2022-05-25T07:04:00,mcc,44.83
2022-05-25T07:05:00,mcc,57.57
2022-05-25T07:06:00,mcc,49.27
2022-05-25T07:07:00,mcc,51.23
2022-05-25T07:08:00,mcc,52.02
2022-05-25T07:09:00,mcc,58.00
2022-05-25T07:10:00,mcc,49.29
2022-05-25T07:11:00,mcc,54.90
2022-05-25T07:12:00,mcc,45.94
2022-05-25T07:13:00,mcc,54.59
2022-05-25T07:14:00,mcc,48.06
2022-05-25T07:15:00,mcc,49.55
2022-05-25T07:16:00,mcc,47.31
2022-05-25T07:17:00,mcc,55.67
2022-05-25T07:18:00,mcc,44.64
2022-05-25T07:19:00,mcc,45.60
2022-05-25T07:20:00,mcc,46.09
2022-05-25T07:21:00,mcc,54.79
2022-05-25T07:22:00,mcc,59.37
2022-05-25T07:23:00,mcc,48.32
2022-05-25T07:24:00,mcc,47.73
2022-05-25T07:25:00,mcc,46.97
2022-05-25T07:26:00,mcc,48.83
2022-05-25T07:27:00,mcc,46.26
2022-05-25T07:28:00,mcc,46.08
2022-05-25T07:29:00,mcc,54.84
2022-05-25T07:30:00,mcc,47.69
2022-05-25T07:31:00,mcc,46.03
2022-05-25T07:32:00,mcc,46.55
2022-05-25T07:33:00,mcc,47.73
2022-05-25T07:34:00,mcc,49.02
2022-05-25T07:35:00,mcc,52.17
2022-05-25T07:36:00,mcc,52.72
2022-05-25T07:37:00,mcc,51.11
2022-05-25T07:38:00,mcc,51.37
2022-05-25T07:39:00,mcc,52.58
2022-05-25T07:40:00,mcc,53.51
2022-05-25T07:41:00,mcc,56.95
2022-05-25T07:42:00,mcc,63.86
2022-05-25T07:43:00,mcc,67.13
2022-05-25T07:44:00,mcc,58.03
2022-05-25T07:45:00,mcc,58.09
2022-05-25T07:46:00,mcc,59.10
2022-05-25T07:47:00,mcc,58.27
2022-05-25T07:48:00,mcc,54.95
2022-05-25T07:49:00,mcc,54.87
2022-05-25T07:50:00,mcc,53.10
2022-05-25T07:51:00,mcc,53.96
2022-05-25T07:52:00,mcc,54.28
2022-05-25T07:53:00,mcc,53.28
2022-05-25T07:54:00,mcc,52.48
2022-05-25T07:55:00,mcc,62.05
2022-05-25T07:56:00,mcc,50.92
2022-05-25T07:57:00,mcc,69.43
2022-05-25T07:58:00,mcc,61.49
2022-05-25T07:59:00,mcc,53.93
2022-05-25T08:00:00,mcc,54.44
2022-05-25T08:01:00,mcc,53.71
2022-05-25T08:02:00,mcc,56.18
2022-05-25T08:03:00,mcc,61.94
2022-05-25T08:04:00,mcc,58.84
2022-05-25T08:05:00,mcc,57.91
2022-05-25T08:06:00,mcc,57.60
2022-05-25T08:07:00,mcc,72.04
2022-05-25T08:08:00,mcc,57.32
2022-05-25T08:09:00,mcc,54.62
2022-05-25T08:10:00,mcc,66.47
2022-05-25T08:11:00,mcc,55.76
2022-05-25T08:12:00,mcc,56.19
2022-05-25T08:13:00,mcc,56.49
2022-05-25T08:14:00,mcc,62.62
2022-05-25T08:15:00,mcc,61.96
2022-05-25T08:16:00,mcc,56.26
2022-05-25T08:17:00,mcc,65.48
2022-05-25T08:18:00,mcc,57.69
2022-05-25T08:19:00,mcc,55.50
2022-05-25T08:20:00,mcc,62.73
2022-05-25T08:21:00,mcc,68.94
2022-05-25T08:22:00,mcc,53.91
2022-05-25T08:23:00,mcc,54.60
2022-05-25T08:24:00,mcc,67.65
2022-05-25T08:25:00,mcc,62.72
2022-05-25T08:26:00,mcc,63.12
2022-05-25T08:27:00,mcc,61.86
2022-05-25T08:28:00,mcc,69.11
2022-05-25T08:29:00,mcc,51.88
2022-05-25T08:30:00,mcc,51.94
2022-05-25T08:31:00,mcc,54.53
2022-05-25T08:32:00,mcc,59.37
2022-05-25T08:33:00,mcc,52.85
2022-05-25T08:34:00,mcc,51.11
2022-05-25T08:35:00,mcc,58.93
2022-05-25T08:36:00,mcc,59.92
2022-05-25T08:37:00,mcc,52.74
2022-05-25T08:38:00,mcc,53.68
2022-05-25T08:39:00,mcc,53.78
2022-05-25T08:40:00,mcc,67.38
2022-05-25T08:41:00,mcc,54.48
2022-05-25T08:42:00,mcc,55.70
2022-05-25T08:43:00,mcc,57.38
2022-05-25T08:44:00,mcc,54.37
2022-05-25T08:45:00,mcc,56.34
2022-05-25T08:46:00,mcc,62.55
2022-05-25T08:47:00,mcc,55.17
2022-05-25T08:48:00,mcc,53.44
2022-05-25T08:49:00,mcc,54.29
2022-05-25T08:50:00,mcc,65.16
2022-05-25T08:51:00,mcc,66.62
2022-05-25T08:52:00,mcc,68.09
2022-05-25T08:53:00,mcc,58.32
2022-05-25T08:54:00,mcc,60.42
2022-05-25T08:55:00,mcc,68.42
2022-05-25T08:56:00,mcc,57.52
2022-05-25T08:57:00,mcc,58.47
2022-05-25T08:58:00,mcc,58.54
2022-05-25T08:59:00,mcc,53.18
2022-05-25T09:00:00,mcc,54.54
2022-05-25T09:01:00,mcc,54.95
2022-05-25T09:02:00,mcc,59.16
2022-05-25T09:03:00,mcc,61.68
2022-05-25T09:04:00,mcc,61.62
2022-05-25T09:05:00,mcc,63.46
2022-05-25T09:06:00,mcc,63.29
2022-05-25T09:07:00,mcc,64.94
2022-05-25T09:08:00,mcc,63.38
2022-05-25T09:09:00,mcc,60.63
2022-05-25T09:10:00,mcc,65.02
2022-05-25T09:11:00,mcc,65.74
2022-05-25T09:12:00,mcc,88.12
2022-05-25T09:13:00,mcc,61.81
2022-05-25T09:14:00,mcc,64.50
2022-05-25T09:15:00,mcc,69.28
2022-05-25T09:16:00,mcc,60.35
2022-05-25T09:17:00,mcc,60.21
2022-05-25T09:18:00,mcc,58.94
2022-05-25T09:19:00,mcc,63.83
2022-05-25T09:20:00,mcc,63.34
2022-05-25T09:21:00,mcc,60.66
2022-05-25T09:22:00,mcc,62.83
2022-05-25T09:23:00,mcc,65.01
2022-05-25T09:24:00,mcc,64.08
2022-05-25T09:25:00,mcc,64.05
2022-05-25T09:26:00,mcc,63.04
2022-05-25T09:27:00,mcc,65.44
2022-05-25T09:28:00,mcc,67.30
2022-05-25T09:29:00,mcc,62.61
2022-05-25T09:30:00,mcc,65.02
2022-05-25T09:31:00,mcc,65.70
2022-05-25T09:32:00,mcc,64.70
2022-05-25T09:33:00,mcc,66.39
2022-05-25T09:34:00,mcc,64.27
2022-05-25T09:35:00,mcc,70.74
2022-05-25T09:36:00,mcc,62.41
2022-05-25T09:37:00,mcc,64.78
2022-05-25T09:38:00,mcc,62.52
2022-05-25T09:39:00,mcc,61.72
2022-05-25T09:40:00,mcc,63.04
2022-05-25T09:41:00,mcc,63.87
2022-05-25T09:42:00,mcc,60.99
2022-05-25T09:43:00,mcc,62.09
2022-05-25T09:44:00,mcc,64.29
2022-05-25T09:45:00,mcc,64.03
2022-05-25T09:46:00,mcc,64.68
2022-05-25T09:47:00,mcc,63.27
2022-05-25T09:48:00,mcc,61.58
2022-05-25T09:49:00,mcc,63.81
2022-05-25T09:50:00,mcc,62.89
2022-05-25T09:51:00,mcc,63.92
2022-05-25T09:52:00,mcc,65.89
2022-05-25T09:53:00,mcc,63.00
2022-05-25T09:54:00,mcc,60.50
2022-05-25T09:55:00,mcc,71.09
2022-05-25T09:56:00,mcc,60.46
2022-05-25T09:57:00,mcc,57.78
2022-05-25T09:58:00,mcc,63.51
2022-05-25T09:59:00,mcc,62.39
2022-05-25T10:00:00,mcc,61.63
2022-05-25T10:01:00,mcc,62.80
2022-05-25T10:02:00,mcc,71.80
2022-05-25T10:03:00,mcc,62.91
2022-05-25T10:04:00,mcc,60.05
2022-05-25T10:05:00,mcc,62.50
2022-05-25T10:06:00,mcc,64.60
2022-05-25T10:07:00,mcc,67.21
2022-05-25T10:08:00,mcc,72.65
2022-05-25T10:09:00,mcc,63.04
2022-05-25T10:10:00,mcc,61.64
2022-05-25T10:11:00,mcc,64.08
2022-05-25T10:12:00,mcc,63.43
2022-05-25T10:13:00,mcc,62.24
2022-05-25T10:14:00,mcc,61.46
2022-05-25T10:15:00,mcc,68.08
2022-05-25T10:16:00,mcc,75.73
2022-05-25T10:17:00,mcc,59.99
2022-05-25T10:18:00,mcc,62.11
2022-05-25T10:19:00,mcc,80.20
2022-05-25T10:20:00,mcc,65.64
2022-05-25T10:21:00,mcc,65.19
2022-05-25T10:22:00,mcc,65.05
2022-05-25T10:23:00,mcc,65.00
2022-05-25T10:24:00,mcc,63.26
2022-05-25T10:25:00,mcc,61.18
2022-05-25T10:26:00,mcc,58.97
2022-05-25T10:27:00,mcc,61.64
2022-05-25T10:28:00,mcc,61.54
2022-05-25T10:29:00,mcc,65.19
2022-05-25T10:30:00,mcc,64.68
2022-05-25T10:31:00,mcc,62.93
2022-05-25T10:32:00,mcc,64.32
2022-05-25T10:33:00,mcc,64.72
2022-05-25T10:34:00,mcc,66.03
2022-05-25T10:35:00,mcc,72.75
2022-05-25T10:36:00,mcc,67.73
2022-05-25T10:37:00,mcc,67.12
2022-05-25T10:38:00,mcc,66.23
2022-05-25T10:39:00,mcc,64.15
2022-05-25T10:40:00,mcc,63.29
2022-05-25T10:41:00,mcc,62.56
2022-05-25T10:42:00,mcc,61.04
2022-05-25T10:43:00,mcc,60.57
2022-05-25T10:44:00,mcc,67.96
2022-05-25T10:45:00,mcc,60.94
2022-05-25T10:46:00,mcc,69.28
2022-05-25T10:47:00,mcc,59.97
2022-05-25T10:48:00,mcc,68.57
2022-05-25T10:49:00,mcc,60.82
2022-05-25T10:50:00,mcc,59.06
2022-05-25T10:51:00,mcc,61.06
2022-05-25T10:52:00,mcc,60.55
2022-05-25T10:53:00,mcc,61.05
2022-05-25T10:54:00,mcc,70.76
2022-05-25T10:55:00,mcc,79.44
2022-05-25T10:56:00,mcc,74.62
2022-05-25T10:57:00,mcc,74.21
2022-05-25T10:58:00,mcc,82.03
2022-05-25T10:59:00,mcc,84.17
2022-05-25T11:00:00,mcc,75.23
2022-05-25T11:01:00,mcc,76.23
2022-05-25T11:02:00,mcc,76.59
2022-05-25T11:03:00,mcc,85.48
2022-05-25T11:04:00,mcc,75.00
2022-05-25T11:05:00,mcc,73.94
2022-05-25T11:06:00,mcc,80.72
2022-05-25T11:07:00,mcc,70.72
2022-05-25T11:08:00,mcc,71.18
2022-05-25T11:09:00,mcc,72.37
2022-05-25T11:10:00,mcc,78.88
2022-05-25T11:11:00,mcc,70.18
2022-05-25T11:12:00,mcc,69.50
2022-05-25T11:13:00,mcc,70.02
2022-05-25T11:14:00,mcc,67.83
2022-05-25T11:15:00,mcc,64.80
2022-05-25T11:16:00,mcc,64.22
2022-05-25T11:17:00,mcc,65.03
2022-05-25T11:18:00,mcc,63.41
2022-05-25T11:19:00,mcc,63.56
2022-05-25T11:20:00,mcc,62.92
2022-05-25T11:21:00,mcc,64.69
2022-05-25T11:22:00,mcc,64.76
2022-05-25T11:23:00,mcc,73.92
2022-05-25T11:24:00,mcc,71.41
2022-05-25T11:25:00,mcc,68.37
2022-05-25T11:26:00,mcc,68.46
2022-05-25T11:27:00,mcc,67.59
2022-05-25T11:28:00,mcc,68.01
2022-05-25T11:29:00,mcc,66.41
2022-05-25T11:30:00,mcc,65.48
2022-05-25T11:31:00,mcc,63.19
2022-05-25T11:32:00,mcc,64.28
2022-05-25T11:33:00,mcc,65.04
2022-05-25T11:34:00,mcc,63.20
2022-05-25T11:35:00,mcc,62.58
2022-05-25T11:36:00,mcc,67.95
2022-05-25T11:37:00,mcc,66.45
2022-05-25T11:38:00,mcc,61.48
2022-05-25T11:39:00,mcc,64.04
2022-05-25T11:40:00,mcc,72.74
2022-05-25T11:41:00,mcc,72.16
2022-05-25T11:42:00,mcc,85.51
2022-05-25T11:43:00,mcc,85.63
2022-05-25T11:44:00,mcc,73.22
2022-05-25T11:45:00,mcc,72.09
2022-05-25T11:46:00,mcc,72.25
2022-05-25T11:47:00,mcc,74.63
2022-05-25T11:48:00,mcc,76.00
2022-05-25T11:49:00,mcc,82.72
2022-05-25T11:50:00,mcc,89.64
2022-05-25T11:51:00,mcc,82.70
2022-05-25T11:52:00,mcc,80.88
2022-05-25T11:53:00,mcc,77.85
2022-05-25T11:54:00,mcc,68.84
2022-05-25T11:55:00,mcc,72.42
2022-05-25T11:56:00,mcc,74.74
2022-05-25T11:57:00,mcc,70.31
2022-05-25T11:58:00,mcc,70.89
2022-05-25T11:59:00,mcc,70.41
2022-05-25T12:00:00,mcc,73.12
2022-05-25T12:01:00,mcc,70.84
2022-05-25T12:02:00,mcc,81.08
2022-05-25T12:03:00,mcc,77.98
2022-05-25T12:04:00,mcc,69.16
2022-05-25T12:05:00,mcc,72.86
2022-05-25T12:06:00,mcc,75.51
2022-05-25T12:07:00,mcc,73.69
2022-05-25T12:08:00,mcc,69.40
2022-05-25T12:09:00,mcc,71.86
2022-05-25T12:10:00,mcc,81.23
2022-05-25T12:11:00,mcc,75.50
2022-05-25T12:12:00,mcc,76.75
2022-05-25T12:13:00,mcc,76.01
2022-05-25T12:14:00,mcc,76.78
2022-05-25T12:15:00,mcc,73.04
2022-05-25T12:16:00,mcc,75.36
2022-05-25T12:17:00,mcc,73.99
2022-05-25T12:18:00,mcc,74.30
2022-05-25T12:19:00,mcc,89.78
2022-05-25T12:20:00,mcc,82.73
2022-05-25T12:21:00,mcc,75.37
2022-05-25T12:22:00,mcc,90.50
2022-05-25T12:23:00,mcc,83.49
2022-05-25T12:24:00,mcc,76.27
2022-05-25T12:25:00,mcc,75.77
2022-05-25T12:26:00,mcc,74.71
2022-05-25T12:27:00,mcc,74.43
2022-05-25T12:28:00,mcc,76.08
2022-05-25T12:29:00,mcc,74.12
2022-05-25T12:30:00,mcc,82.27
2022-05-25T12:31:00,mcc,73.52
2022-05-25T12:32:00,mcc,74.05
2022-05-25T12:33:00,mcc,76.20
2022-05-25T12:34:00,mcc,77.08
2022-05-25T12:35:00,mcc,78.37
2022-05-25T12:36:00,mcc,76.25
2022-05-25T12:37:00,mcc,83.79
2022-05-25T12:38:00,mcc,76.24
2022-05-25T12:39:00,mcc,75.49
2022-05-25T12:40:00,mcc,75.13
2022-05-25T12:41:00,mcc,80.27
2022-05-25T12:42:00,mcc,73.48
2022-05-25T12:43:00,mcc,72.13
2022-05-25T12:44:00,mcc,70.75
2022-05-25T12:45:00,mcc,71.13
2022-05-25T12:46:00,mcc,72.85
2022-05-25T12:47:00,mcc,79.78
2022-05-25T12:48:00,mcc,79.69
2022-05-25T12:49:00,mcc,72.85
2022-05-25T12:50:00,mcc,82.18
2022-05-25T12:51:00,mcc,74.73
2022-05-25T12:52:00,mcc,72.97
2022-05-25T12:53:00,mcc,76.84
2022-05-25T12:54:00,mcc,77.54
2022-05-25T12:55:00,mcc,75.07
2022-05-25T12:56:00,mcc,73.39
2022-05-25T12:57:00,mcc,73.58
2022-05-25T12:58:00,mcc,75.19
2022-05-25T12:59:00,mcc,74.71
2022-05-25T13:00:00,mcc,73.02
2022-05-25T13:01:00,mcc,75.20
2022-05-25T13:02:00,mcc,75.10
2022-05-25T13:03:00,mcc,71.34
2022-05-25T13:04:00,mcc,74.72
2022-05-25T13:05:00,mcc,75.92
2022-05-25T13:06:00,mcc,75.32
2022-05-25T13:07:00,mcc,74.31
2022-05-25T13:08:00,mcc,70.16
2022-05-25T13:09:00,mcc,71.86
2022-05-25T13:10:00,mcc,78.48
2022-05-25T13:11:00,mcc,71.12
2022-05-25T13:12:00,mcc,71.60
2022-05-25T13:13:00,mcc,71.30
2022-05-25T13:14:00,mcc,73.58
2022-05-25T13:15:00,mcc,74.38
2022-05-25T13:16:00,mcc,74.64
2022-05-25T13:17:00,mcc,81.99
2022-05-25T13:18:00,mcc,72.72